Weather History for Gatesville, TX

Change the Weather History Date:

Wednesday, March 6, 2013

  Actual Average (KHLR) Record (KHLR)
Temperature  
Mean Temperature 45 °F -  
Max Temperature 62 °F 65 °F 84 °F (2009)
Min Temperature 28 °F 47 °F 33 °F (2003)
Degree Days  
Heating Degree Days 20    
Moisture  
Dew Point 18 °F    
Average Humidity 37    
Maximum Humidity 64    
Minimum Humidity 14    
Precipitation  
Precipitation 0.00 in - - ()
Sea Level Pressure  
Sea Level Pressure 30.36 in    
Wind  
Wind Speed 4 mph (SE)    
Max Wind Speed 10 mph    
Max Gust Speed -    
Visibility 10 miles    
Events      
Averages and records for this station are not official NWS values.
T = Trace of Precipitation, MM = Missing Value Source: NWS Daily Summary

Daily Weather History Graph

Daily Weather History Graph

Search for Another Location

Airport:

Trip Planner

Search our weather history database for the weather conditions in past years. The results will help you decide how hot, cold, wet, or windy it might be!

Date:

Astronomy

Mar. 06, 2013 Rise Set
Actual Time 6:51 AM CST 6:33 PM CST
Civil Twilight 6:27 AM CST 6:57 PM CST
Nautical Twilight 5:59 AM CST 7:25 PM CST
Astronomical Twilight 5:31 AM CST 7:53 PM CST
Moon 2:46 AM CST (3/6) 1:31 PM CST (3/6)
Length of Visible Light 12h 29m
Length of Day
11h 41m
Waning Crescent, 29% of the Moon is Illuminated
Mar 6
Waning Crescent
Mar 11
New
Mar 19
First Quarter
Mar 27
Full
Apr 2
Last Quarter

Hourly Weather History & Observations

Time (CST) Temp. Windchill Dew Point Humidity Pressure Visibility Wind Dir Wind Speed Gust Speed Precip Events Conditions
12:15 AM 37.4 °F - 15.8 °F 41% 30.40 in 10.0 mi Calm Calm - N/A   Clear
12:35 AM 37.4 °F - 15.8 °F 41% 30.40 in 10.0 mi Calm Calm - N/A   Clear
12:55 AM 37.4 °F 34.9 °F 15.8 °F 41% 30.40 in 10.0 mi NW 3.5 mph - N/A   Clear
1:15 AM 37.4 °F 34.9 °F 17.6 °F 45% 30.40 in 10.0 mi WNW 3.5 mph - N/A   Clear
1:35 AM 35.6 °F 30.7 °F 17.6 °F 48% 30.41 in 10.0 mi SW 5.8 mph - N/A   Clear
1:55 AM 33.8 °F 29.6 °F 17.6 °F 52% 30.40 in 10.0 mi West 4.6 mph - N/A   Clear
2:15 AM 33.8 °F 30.8 °F 17.6 °F 52% 30.40 in 10.0 mi WNW 3.5 mph - N/A   Clear
2:35 AM 33.8 °F 29.6 °F 17.6 °F 52% 30.40 in 10.0 mi West 4.6 mph - N/A   Clear
2:55 AM 33.8 °F 29.6 °F 17.6 °F 52% 30.40 in 10.0 mi West 4.6 mph - N/A   Clear
3:15 AM 33.8 °F 30.8 °F 17.6 °F 52% 30.39 in 10.0 mi West 3.5 mph - N/A   Clear
3:35 AM 32.0 °F 27.5 °F 17.6 °F 55% 30.39 in 10.0 mi WSW 4.6 mph - N/A   Clear
3:55 AM 32.0 °F 25.6 °F 17.6 °F 55% 30.40 in 10.0 mi SW 6.9 mph - N/A   Clear
4:15 AM 32.0 °F 28.7 °F 17.6 °F 55% 30.41 in 10.0 mi WSW 3.5 mph - N/A   Clear
4:35 AM 32.0 °F - 17.6 °F 55% 30.41 in 10.0 mi Calm Calm - N/A   Clear
4:55 AM 32.0 °F 28.7 °F 17.6 °F 55% 30.42 in 10.0 mi SW 3.5 mph - N/A   Clear
5:15 AM 32.0 °F - 17.6 °F 55% 30.42 in 10.0 mi Calm Calm - N/A   Clear
5:35 AM 32.0 °F 28.7 °F 17.6 °F 55% 30.42 in 10.0 mi West 3.5 mph - N/A   Clear
5:55 AM 32.0 °F - 17.6 °F 55% 30.43 in 10.0 mi Calm Calm - N/A   Clear
6:15 AM 32.0 °F - 17.6 °F 55% 30.42 in 10.0 mi Calm Calm - N/A   Clear
6:35 AM 30.2 °F - 17.6 °F 60% 30.43 in 10.0 mi Calm Calm - N/A   Clear
6:55 AM 28.4 °F 22.2 °F 17.6 °F 64% 30.44 in 10.0 mi WSW 5.8 mph - N/A   Clear
7:15 AM 30.2 °F 25.4 °F 17.6 °F 60% 30.45 in 10.0 mi WSW 4.6 mph - N/A   Clear
7:35 AM 32.0 °F - 19.4 °F 60% 30.45 in 10.0 mi Calm Calm - N/A   Clear
7:55 AM 35.6 °F - 19.4 °F 52% 30.47 in 10.0 mi Calm Calm - N/A   Clear
8:15 AM 37.4 °F - 21.2 °F 52% 30.48 in 10.0 mi Calm Calm - N/A   Clear
8:35 AM 39.2 °F 35.9 °F 21.2 °F 49% 30.47 in 10.0 mi NNE 4.6 mph - N/A   Clear
8:55 AM 39.2 °F 33.6 °F 21.2 °F 49% 30.47 in 10.0 mi ENE 8.1 mph - N/A   Clear
9:15 AM 42.8 °F 37.5 °F 23.0 °F 46% 30.47 in 10.0 mi East 9.2 mph - N/A   Clear
9:35 AM 44.6 °F 39.2 °F 21.2 °F 39% 30.46 in 10.0 mi ENE 10.4 mph - N/A   Clear
9:55 AM 46.4 °F 42.4 °F 21.2 °F 37% 30.46 in 10.0 mi ENE 8.1 mph - N/A   Clear
10:15 AM 46.4 °F 42.9 °F 21.2 °F 37% 30.47 in 10.0 mi East 6.9 mph - N/A   Clear
10:35 AM 48.2 °F - 19.4 °F 32% 30.47 in 10.0 mi NE 6.9 mph - N/A   Clear
10:55 AM 48.2 °F - 19.4 °F 32% 30.47 in 10.0 mi ENE 3.5 mph - N/A   Clear
11:15 AM 51.8 °F - 19.4 °F 28% 30.46 in 10.0 mi ESE 3.5 mph - N/A   Clear
11:35 AM 51.8 °F - 19.4 °F 28% 30.46 in 10.0 mi SE 4.6 mph - N/A   Clear
11:55 AM 51.8 °F - 17.6 °F 26% 30.44 in 10.0 mi East 5.8 mph - N/A   Clear
12:15 PM 53.6 °F - 17.6 °F 24% 30.43 in 10.0 mi Calm Calm - N/A   Clear
12:35 PM 53.6 °F - 17.6 °F 24% 30.42 in 10.0 mi ENE 4.6 mph - N/A   Clear
12:55 PM 55.4 °F - 14.0 °F 20% 30.40 in 10.0 mi Calm Calm - N/A   Clear
1:15 PM 55.4 °F - 15.8 °F 21% 30.38 in 10.0 mi East 5.8 mph - N/A   Clear
1:35 PM 59.0 °F - 15.8 °F 19% 30.36 in 10.0 mi South 5.8 mph - N/A   Clear
1:55 PM 57.2 °F - 12.2 °F 17% 30.34 in 10.0 mi SE 5.8 mph - N/A   Clear
2:15 PM 59.0 °F - 14.0 °F 17% 30.32 in 10.0 mi East 4.6 mph - N/A   Clear
2:35 PM 60.8 °F - 14.0 °F 16% 30.30 in 10.0 mi East 5.8 mph - N/A   Clear
2:55 PM 60.8 °F - 12.2 °F 15% 30.30 in 10.0 mi SE 4.6 mph - N/A   Clear
3:15 PM 60.8 °F - 10.4 °F 14% 30.29 in 10.0 mi ESE 5.8 mph - N/A   Clear
3:35 PM 60.8 °F - 14.0 °F 16% 30.29 in 10.0 mi East 6.9 mph - N/A   Clear
3:55 PM 60.8 °F - 15.8 °F 17% 30.28 in 10.0 mi East 9.2 mph - N/A   Clear
4:15 PM 60.8 °F - 17.6 °F 19% 30.26 in 10.0 mi ESE 4.6 mph - N/A   Clear
4:35 PM 62.6 °F - 17.6 °F 18% 30.26 in 10.0 mi East 6.9 mph - N/A   Clear
4:55 PM 60.8 °F - 19.4 °F 20% 30.25 in 10.0 mi ESE 3.5 mph - N/A   Clear
5:15 PM 60.8 °F - 14.0 °F 16% 30.24 in 10.0 mi SE 5.8 mph - N/A   Clear
5:35 PM 60.8 °F - 14.0 °F 16% 30.25 in 10.0 mi SSE 8.1 mph - N/A   Clear
5:55 PM 60.8 °F - 14.0 °F 16% 30.26 in 10.0 mi South 6.9 mph - N/A   Clear
6:15 PM 57.2 °F - 17.6 °F 21% 30.26 in 10.0 mi SE 3.5 mph - N/A   Clear
6:35 PM 55.4 °F - 19.4 °F 25% 30.26 in 10.0 mi ESE 3.5 mph - N/A   Clear
6:55 PM 53.6 °F - 19.4 °F 26% 30.26 in 10.0 mi ESE 3.5 mph - N/A   Clear
7:15 PM 51.8 °F - 19.4 °F 28% 30.26 in 10.0 mi Calm Calm - N/A   Clear
7:35 PM 50.0 °F - 21.2 °F 32% 30.25 in 10.0 mi Calm Calm - N/A   Clear
7:55 PM 51.8 °F - 19.4 °F 28% 30.26 in 10.0 mi SE 3.5 mph - N/A   Clear
8:15 PM 48.2 °F - 19.4 °F 32% 30.25 in 10.0 mi SE 3.5 mph - N/A   Clear
8:35 PM 48.2 °F - 19.4 °F 32% 30.25 in 10.0 mi SE 3.5 mph - N/A   Clear
8:55 PM 48.2 °F - 19.4 °F 32% 30.26 in 10.0 mi SSE 3.5 mph - N/A   Clear
9:35 PM 48.2 °F - 21.2 °F 34% 30.25 in 10.0 mi SE 3.5 mph - N/A   Clear
9:55 PM 46.4 °F 45.2 °F 21.2 °F 37% 30.25 in 10.0 mi SSE 3.5 mph - N/A   Clear
10:15 PM 46.4 °F 45.2 °F 21.2 °F 37% 30.25 in 10.0 mi SSE 3.5 mph - N/A   Clear
10:35 PM 46.4 °F 42.9 °F 21.2 °F 37% 30.25 in 10.0 mi South 6.9 mph - N/A   Clear
10:55 PM 46.4 °F 42.4 °F 21.2 °F 37% 30.24 in 10.0 mi South 8.1 mph - N/A   Clear
11:15 PM 48.2 °F - 21.2 °F 34% 30.23 in 10.0 mi SSE 6.9 mph - N/A   Clear
11:35 PM 46.4 °F 43.5 °F 21.2 °F 37% 30.23 in 10.0 mi SSE 5.8 mph - N/A   Clear
11:55 PM 44.6 °F 43.1 °F 23.0 °F 43% 30.22 in 10.0 mi SE 3.5 mph - N/A   Clear